This demonstration page uses our WeatherBlox Daily Observations layout. Learn more.

41.55636, -103.73856

Hourly Observations for May 4, 2016

Temp ( °F °C ) Dew Point ( °F °C ) Humidity (%) Winds ( mph kmh ) Pressure ( in mb ) Visibility ( mi km ) Precip ( " mm )
12:53 am 00:53 Clear 44 6.7 39 3.9 83 83 N 6 9 30.11 1020 10 16.0934 0 0
1:53 am 01:53 Clear 42 5.6 38 3.3 85 85 NNW 3 6 30.11 1020 10 16.0934 0 0
2:53 am 02:53 Clear 45 7.2 39 3.9 80 80 NNW 9 15 30.1 1019 10 16.0934 0 0
3:53 am 03:53 Clear 44 6.7 39 3.9 83 83 NNW 10 17 30.11 1020 10 16.0934 0 0
4:53 am 04:53 Clear 43 6.1 38 3.3 82 82 NW 10 17 30.11 1020 10 16.0934 0 0
5:53 am 05:53 Sunny 41 5 37 2.8 86 86 NW 9 15 30.12 1020 10 16.0934 0 0
6:53 am 06:53 Sunny 44 6.7 39 3.9 83 83 NW 8 13 30.13 1020 10 16.0934 0 0
7:53 am 07:53 Sunny 50 10 41 5 71 71 WNW 10 17 30.15 1021 10 16.0934 0 0
8:53 am 08:53 Sunny 57 13.9 43 6.1 60 60 WNW 9 15 30.15 1021 10 16.0934 0 0
9:53 am 09:53 Sunny 63 17.2 44 6.7 50 50 WNW 5 7 30.13 1020 10 16.0934 0 0
10:53 am 10:53 Sunny 68 20 41 5 38 38 Calm 30.12 1020 10 16.0934 0 0
11:53 am 11:53 Sunny 71 21.7 38 3.3 30 30 SSE 6 9 30.1 1019 10 16.0934 0 0
12:53 pm 12:53 Sunny 72 22.2 38 3.3 29 29 VRB 5 7 30.09 1019 10 16.0934 0 0
1:53 pm 13:53 Sunny 74 23.3 38 3.3 27 27 Calm 30.07 1018 10 16.0934 0 0
2:53 pm 14:53 Sunny 76 24.4 38 3.3 25 25 E 5 7 30.04 1017 10 16.0934 0 0
3:53 pm 15:53 Sunny 76 24.4 38 3.3 25 25 SE 6 9 30.02 1017 10 16.0934 0 0
4:53 pm 16:53 Sunny 76 24.4 39 3.9 26 26 SE 6 9 30.01 1016 10 16.0934 0 0
5:53 pm 17:53 Sunny 75 23.9 39 3.9 27 27 ESE 8 13 30 1016 10 16.0934 0 0
6:53 pm 18:53 Sunny 72 22.2 41 5 33 33 ESE 12 19 29.99 1016 10 16.0934 0 0
7:53 pm 19:53 Sunny 64 17.8 42 5.6 45 45 ESE 10 17 29.99 1016 10 16.0934 0 0
8:53 pm 20:53 Clear 63 17.2 43 6.1 48 48 SE 9 15 29.99 1016 10 16.0934 0 0
9:53 pm 21:53 Clear 56 13.3 43 6.1 62 62 ESE 6 9 30.01 1016 10 16.0934 0 0
10:53 pm 22:53 Clear 54 12.2 42 5.6 64 64 ESE 6 9 30.01 1016 10 16.0934 0 0
11:53 pm 23:53 Clear 51 10.6 42 5.6 71 71 E 7 11 30 1016 10 16.0934 0 0

Powered by AerisWeather